Starlink 35695

operational
NORAD ID: 66558 Int'l Des: 2025-268 Owner: SPXS Country: US Constellation: starlink
LEOCIRCULAR

Starlink 35695について

説明を読み込み中...

リアルタイム位置

3D地球を読み込み中...

次回通過

高度履歴

Altitude vs Time

uPlot chart will show altitude changes over time

軌道要素

1 66558U 25268B 26061.61620227 .00025616 00000-0 93734-3 0 9993
2 66558 42.9999 27.3892 0000483 286.5004 73.5795 15.27574027 16873
Epoch: Mar 2, 2026 • Age: 26 hours

現在のステータス

高度 485.2 km
速度 7.63 km/s
衛星直下点 37.21°N, 44.58°W
打ち上げ日 Nov 21, 2025
運用期間 0.2 years
タイプ internet

技術仕様

分類 Payload
質量 575.00 kg
乾燥質量 530.00 kg
総質量 575.00 kg
長さ 0.30 m
直径 4.10 m
スパン 29.00 m
形状 Box + pan
製造者 SPXS
バスタイプ Starlink V2MO
フェーズステータス In Orbit
所有者/国 SPXS/US

大規模コンステレーション

Loading constellations...